Location: Stull Observatory
(42.2506°N, 77.7903°W)
Time: 23:33:29
(UTC-04:00)

Okean O Rocket - Visible Passes

Search period start: 29 August 2015 00:00
Search period end: 08 September 2015 00:00
Orbit: 623 x 647 km, 98.0° (Epoch: 29 August)

Date Brightness Start Highest point End Pass type
(mag) Time Alt. Az. Time Alt. Az. Time Alt. Az.
29 Aug 1.7 04:22:51 10° NNE 04:27:16 73° ESE 04:28:41 42° S visible
29 Aug 3.6 06:01:23 10° NW 06:03:10 12° WNW 06:04:45 10° W visible
30 Aug 4.3 03:10:43 10° ENE 03:12:12 12° E 03:13:16 11° ESE visible
30 Aug 1.6 04:44:46 10° N 04:49:09 65° WNW 04:50:45 37° SW visible
31 Aug 3.7 03:31:10 10° NE 03:34:22 20° E 03:35:20 19° ESE visible
31 Aug 2.2 05:06:52 10° N 05:10:58 38° WNW 05:12:49 26° WSW visible
01 Sep 3.0 03:52:27 10° NNE 03:56:27 33° E 03:57:24 30° ESE visible
01 Sep 2.9 05:29:11 10° NNW 05:32:44 23° WNW 05:34:52 16° WSW visible
02 Sep 2.1 04:14:05 10° NNE 04:18:27 58° E 04:19:28 45° SSE visible
02 Sep 3.4 05:51:55 10° NNW 05:54:27 15° WNW 05:56:49 10° W visible
03 Sep 1.5 04:35:55 10° N 04:40:21 82° WNW 04:41:31 49° SSW visible
04 Sep 4.0 03:22:45 10° NE 03:25:28 16° E 03:26:07 16° E visible
04 Sep 1.9 04:57:56 10° N 05:02:12 47° WNW 05:03:35 35° WSW visible
05 Sep 3.3 03:43:50 10° NE 03:47:35 27° E 03:48:10 26° ESE visible
05 Sep 2.6 05:20:10 10° N 05:23:59 29° WNW 05:25:39 22° WSW visible
06 Sep 2.4 04:05:20 10° NNE 04:09:37 46° E 04:10:14 43° SE visible
06 Sep 3.2 05:42:41 10° NNW 05:45:44 18° WNW 05:47:42 14° W visible
07 Sep 1.6 04:27:05 10° NNE 04:31:33 81° ESE 04:32:17 61° S visible
07 Sep 3.7 06:06:01 10° NW 06:07:25 11° WNW 06:08:34 10° WNW visible
